Location: Saint-Palais-sur-Mer
(45.6429°N, 1.0859°W)
Time: 01:06:52
(UTC+01:00)

Tiros 1 despin weight - Pass Details

Date: 10 February 2026
Orbit: 556 x 593 km, 48.2° (Epoch: 13 March)

Event Time Altitude Azimuth Distance (km) Brightness Sun altitude
Rises 21:06:33 0° 267° (W) 2,730 ? -28.8°
Reaches altitude 10° 21:08:49 10° 271° (W) 1,838 ? -29.2°
Enters shadow 21:11:14 33° 283° (WNW) 957 ? -29.6°
Maximum altitude 21:12:58 64° 352° (N) 624 - -29.9°
Drops below altitude 10° 21:17:11 10° 75° (ENE) 1,853 - -30.7°
Sets 21:19:28 0° 79° (E) 2,756 - -31.1°
